User: anonymous   Login
Location: Unspecified
(0.0000°N, 0.0000°E)
Time: 17:51:45
(UTC+00:00)
Language:

RISAT 1 - Orbit

View from above orbital plane
View from above orbital plane
View from above satellite
View from above satellite

Ground track
Ground track

The orbit data is extracted from the following two-line orbital elements,

1 38248U 12017A   17116.77466759 +.00001908 +00000-0 +12453-3 0  9999
2 38248 097.5740 125.0968 0003364 198.2684 276.9334 15.09040261275482
Epoch (UTC): 26 April 2017 18:35:31
Eccentricity: 0.0003364
inclination: 97.5740°
perigee height: 537 km
apogee height: 541 km
right ascension of ascending node: 125.0968°
argument of perigee: 198.2684°
revolutions per day: 15.09040261
mean anomaly at epoch: 276.9334°
orbit number at epoch: 27548

The dashed part of the orbit path shows where the satellite is in the earth's shadow,  

DLR